Regional Weather Roundup
Issued by NWS

Home | Current Version | Previous Version | Graphics & Text | Print | Product List | Glossary On
Versions: 1 2 3 4 5 6 7 8 9 10 11 12 13 14 15 16 17 18 19 20 21 22 23 24 25 26 27 28 29 30 31 32 33 34 35 36 37 38 39 40 41 42 43 44 45 46 47 48 49 50
000
ASUS43 KIND 220459
RWRIN

WEATHER ROUNDUP FOR INDIANA
NATIONAL WEATHER SERVICE INDIANAPOLIS IN
100 AM EDT WED MAR 22 2017

NOTE: "FAIR" INDICATES FEW OR NO CLOUDS BELOW 12,000 FEET WITH NO
SIGNIFICANT WEATHER AND/OR OBSTRUCTIONS TO VISIBILITY.

* - STATION DOES NOT REPORT WEATHER SUCH AS PRECIPITATION OR FOG.

+ - STATION NOT QUALITY CONTROLLED BY THE NATIONAL WEATHER SERVICE.
    USE DATA WITH CAUTION...ESPECIALLY DEWPOINT AND RELATIVE
    HUMIDITY OBSERVATIONS.

INZ001>003-010>013-019-020-220600-
NORTHWEST INDIANA

CITY           SKY/WX    TMP DP  RH WIND       PRES   REMARKS
KNOX *+        FAIR      32   9  37 N13       30.36R WCI  22
MICHIGAN CITY+ FAIR      30  21  69 N18G24    30.40R WCI  18
MONTICELLO +   FAIR      32  24  72 N12       30.33R WCI  23

$$

LMZ046-743>745-220600-
SOUTHERN LAKE MICHIGAN

STATION/POSITION TIME  TEMP    WIND        PRES    WAVE
                       AIR SEA DIR/SP/G            HT
                 (UTC) (F)     (DEG/KT/KT) (MB)    (FT)
BURNS HARBOR     0440   33      30/ 27/ 32 1029.1R
MICHIGAN CITY    0430   32      10/ 31/ 37   N/A

$$

INZ004-005-014>016-021>024-220600-
NORTH CENTRAL INDIANA

CITY           SKY/WX    TMP DP  RH WIND       PRES   REMARKS
GOSHEN         FAIR      32  17  54 N16       30.33R WCI  21
SOUTH BEND     FAIR      29  19  66 N15       30.36R WCI  18

$$

INZ006>009-017-018-025>027-220600-
NORTHEAST INDIANA

CITY           SKY/WX    TMP DP  RH WIND       PRES   REMARKS
ANGOLA *+      CLEAR     30  18  59 N9        30.29R WCI  22
FORT WAYNE     FAIR      33  20  58 N9        30.30R WCI  25
KENDALLVILLE + FAIR      31  19  58 N13G18    30.30R WCI  22

$$

INZ028-029-035-036-043>045-051>053-220600-
WEST CENTRAL INDIANA

CITY           SKY/WX    TMP DP  RH WIND       PRES   REMARKS
CRAWFORDSVL +  FAIR      33  26  75 N10       30.30R WCI  24
GREENCASTLE +  FAIR      34  27  75 N9        30.30R WCI  26
LAFAYETTE      FAIR      33  24  69 N12       30.33R WCI  24
TERRE HAUTE    FAIR      40  28  62 NE12      30.30R

$$

INZ030>032-037>040-046>048-054>057-064-065-220600-
CENTRAL INDIANA

CITY           SKY/WX    TMP DP  RH WIND       PRES   REMARKS
GREENWOOD *+   FAIR      38  25  60 N18       30.28R
INDIANAPOLIS   FAIR      37  24  59 N17G23    30.28R
-EAGLE CREEK   FAIR      36  24  62 N10       30.28R
KOKOMO +       FAIR      33  24  69 N10       30.32R WCI  25
SHELBYVILLE    FAIR      38  26  62 N9        30.27R

$$

INZ033-034-041-042-049-050-058-059-220600-
EAST CENTRAL INDIANA

CITY           SKY/WX    TMP DP  RH WIND       PRES   REMARKS
MUNCIE         FAIR      35  25  66 N9        30.28R WCI  28
RICHMOND +     FAIR      34  25  69 N15G21    30.24R WCI  24

$$

INZ060-061-067>069-081>083-085>088-220600-
SOUTHWEST INDIANA

CITY           SKY/WX    TMP DP  RH WIND       PRES   REMARKS
EVANSVILLE     FAIR      48  33  56 N12       30.25R
HUNTINGBURG *+ FAIR      46  33  60 N8        30.25R

$$

INZ062-063-066-070>080-084-089>092-220600-
SOUTH CENTRAL AND SOUTHEAST INDIANA

CITY           SKY/WX    TMP DP  RH WIND       PRES   REMARKS
BLOOMINGTON    FAIR      41  25  53 NE12      30.26R
MADISON *+     FAIR      45  27  49 N7G17     30.25R
SEYMOUR +      FAIR      43  27  52 N15       30.26R

$$





USA.gov is the U.S. government's official web portal to all federal, state and local government web resources and services.